Location: Christchurch
(43.5330°S, 172.6330°E)
Time: 03:29:00
(UTC+13:00)

ADEOS Rocket - Pass Details

Date: 24 January 2019
Orbit: 859 x 1307 km, 98.7° (Epoch: 18 February)

Event Time Altitude Azimuth Distance (km) Brightness Sun altitude
Exits shadow 23:05:50 11° 346° (NNW) 2,458 4.8 -17.8°
Maximum altitude 23:10:47 40° 278° (W) 1,274 3.8 -18.4°
Drops below altitude 10° 23:15:59 10° 209° (SSW) 2,532 6.4 -18.9°
Sets 23:18:33 0° 201° (SSW) 3,490 7.3 -19.2°
